STARLINK-5703, 55593

Orbit data source: Space-Track

STARLINK-5703, 55593 is a payload satellite owned by SpaceX/Seattle (US) in LEO that was launched on Sun, 12 Feb 2023 UTC via an FALCON 9 launch vehicle from the Air Force Eastern Test Range (AFETR). Payload-class satellites include a variety of spacecraft equipped with specific instruments for various scientific and technological missions. These include communications satellites like Starlink; space stations such as the ISS; scientific satellites like the Hubble; Earth observation satellites from companies like Planet Labs, Umbra, and HawkEye 360; GPS; miniature CubeSats for education and research; and military/defense satellites.

Loading next visibility...
Identifier
55593, 2023-020AA
Orbit
LEO
Country
Flag of USUS
Related business
Manufacturer
SpaceX/Seattle
Mission
Operational spacecraft
Bus & Motor
STARLINK, Unknown motor
Mass
305 kg wet, ~290 kg dry
Launch date (UTC)
2023-02-12 (3 years ago)
Launch vehicle
FALCON 9
Launch site
Air Force Eastern Test Range (AFETR)
Object type
Payload
Rocket body
Debris
Shape & HBR
Unknown shape, 10.1 m
Radar Cross Section
Large (>1 m²)

Expand to show TLE details & history
Last TLE update: 17 hours ago

TLE from 17 hours ago
0 STARLINK-5703
1 55593U 23020AA  26062.25173768  .00000256  00000-0  34055-4 0  9993
2 55593  43.0044  39.3833 0001130 263.8580  96.2133 15.02535812167954
Epoch: 2026-03-03T06:02Z
TLE epoch observation values (Epoch: 2026-03-03T06:02:30.135Z)
Latitude
-0.00006°
Longitude
147.7242°
Altitude
558.943 km
Speed
7.584 km/s
True Right ascension
02h 37m 31s
True Declination
0° 00' 00"
Sunlit
Object was in daylight at epoch
Visualization orbit readout
Latitude
Unknown
Longitude
Unknown
Altitude
Unknown
Speed
Unknown
Apparent Right ascension
Unknown
Apparent Declination
Unknown
Sunlit
N/A
Visualization observer readout
Local Sidereal Time
02:59:25
Azimuth
Unknown
Elevation
Unknown
Doppler factor
Unknown
Orbital elements
Apogee altitude
561.787 km
Perigee altitude
560.219 km
Semi-major axis
6,939.14 km
Eccentricity
0.00011
Inclination
43.0044°
RAAN
39.3833°
Arg. of periapsis
263.858°
True anomaly
96.22617°
Mean anomaly
96.2133°
Eccentric anomaly
96.21974°
Mean motion
3.75478 °/min
Orbital period
95.88 mins
BSTAR
0.000034055
Loading maneuver chart data...
Computing Atmospheric mass density...
Loading historical data...
Loading historical data...
Loading historical data...
Loading historical data...
Loading historical data...
Loading historical data...
Loading historical data...

Documentation

Showing up to 5 results
|